Humboldt, Iowa, United States (50548)
Lat: 42.72N, Lon: 94.22W
Wx Zone: IAZ024
Local Info
Past Weather Observations for Saturday, September 27, 2014

NOTE: This archive is for the closest National Weather Service station to Humboldt. Information may differ from the station used for current weather conditions.

Click here for Long-term Archive

Time Weather Temperature Dewpoint Humidity Pressure Winds Precip Visibility
23:55
Clear
61°F / 16°C 55°F / 13°C 83% 30.12 in
(1020 mb)
E 3.5 mph
(E 6 kph)
- 10SM
23:35
Clear
59°F / 15°C 55°F / 13°C 88% 30.12 in
(1020 mb)
E 3.5 mph
(E 6 kph)
- 10SM
23:15
Clear
61°F / 16°C 57°F / 14°C 88% 30.12 in
(1020 mb)
Calm - 10SM
22:55
Clear
61°F / 16°C 55°F / 13°C 83% 30.12 in
(1020 mb)
ESE 4.6 mph
(ESE 7 kph)
- 10SM
22:35
Clear
66°F / 19°C 59°F / 15°C 78% 30.12 in
(1020 mb)
Calm - 10SM
22:15
Clear
66°F / 19°C 59°F / 15°C 78% 30.12 in
(1020 mb)
SSE 4.6 mph
(SSE 7 kph)
- 10SM
21:55
Clear
68°F / 20°C 59°F / 15°C 73% 30.12 in
(1020 mb)
SSE 4.6 mph
(SSE 7 kph)
- 10SM
21:35
Clear
68°F / 20°C 59°F / 15°C 73% 30.12 in
(1020 mb)
SSE 4.6 mph
(SSE 7 kph)
- 10SM
21:15
Clear
68°F / 20°C 59°F / 15°C 73% 30.12 in
(1020 mb)
SE 4.6 mph
(SE 7 kph)
- 10SM
20:55
Clear
68°F / 20°C 61°F / 16°C 78% 30.12 in
(1020 mb)
SSE 5.8 mph
(SSE 9 kph)
- 10SM
20:35
Clear
70°F / 21°C 59°F / 15°C 69% 30.12 in
(1020 mb)
SSE 5.8 mph
(SSE 9 kph)
- 10SM
20:15
Clear
70°F / 21°C 59°F / 15°C 69% 30.12 in
(1020 mb)
SE 4.6 mph
(SE 7 kph)
- 10SM
19:55
Partly Cloudy
70°F / 21°C 59°F / 15°C 69% 30.12 in
(1020 mb)
SSE 3.5 mph
(SSE 6 kph)
- 10SM
19:35
Clear
70°F / 21°C 61°F / 16°C 73% 30.12 in
(1020 mb)
SE 4.6 mph
(SE 7 kph)
- 10SM
19:15
Clear
66°F / 19°C 57°F / 14°C 73% 30.12 in
(1020 mb)
SE 5.8 mph
(SE 9 kph)
- 10SM
18:55
Clear
72°F / 22°C 59°F / 15°C 65% 30.09 in
(1019 mb)
SE 4.6 mph
(SE 7 kph)
- 10SM
18:35
Clear
72°F / 22°C 59°F / 15°C 65% 30.09 in
(1019 mb)
SSE 4.6 mph
(SSE 7 kph)
- 10SM
18:15
Clear
72°F / 22°C 59°F / 15°C 65% 30.09 in
(1019 mb)
SSE 3.5 mph
(SSE 6 kph)
- 10SM
17:55
Clear
73°F / 23°C 61°F / 16°C 65% 30.09 in
(1019 mb)
SSE 5.8 mph
(SSE 9 kph)
- 10SM
17:35
Clear
75°F / 24°C 61°F / 16°C 61% 30.09 in
(1019 mb)
SSE 3.5 mph
(SSE 6 kph)
- 10SM
17:15
Clear
75°F / 24°C 61°F / 16°C 61% 30.09 in
(1019 mb)
SSE 4.6 mph
(SSE 7 kph)
- 10SM
16:55
Clear
77°F / 25°C 61°F / 16°C 57% 30.09 in
(1019 mb)
SSE 3.5 mph
(SSE 6 kph)
- 10SM
16:35
Clear
77°F / 25°C 61°F / 16°C 57% 30.09 in
(1019 mb)
SSE 6.9 mph
(SSE 11 kph)
- 10SM
16:15
Clear
77°F / 25°C 59°F / 15°C 54% 30.09 in
(1019 mb)
SSE 9.2 mph
(SSE 15 kph)
- 10SM
15:55
Clear
79°F / 26°C 59°F / 15°C 51% 30.09 in
(1019 mb)
SSE 8.1 mph
(SSE 13 kph)
- 10SM
15:35
Clear
79°F / 26°C 61°F / 16°C 54% 30.09 in
(1019 mb)
SSE 10.4 mph
(SSE 17 kph)
- 10SM
15:15
Clear
79°F / 26°C 61°F / 16°C 54% 30.09 in
(1019 mb)
SSE 13.8 mph
(SSE 22 kph)
- 10SM
14:55
Clear
79°F / 26°C 61°F / 16°C 54% 30.09 in
(1019 mb)
SSE 8.1 mph
(SSE 13 kph)
- 10SM
14:35
Partly Cloudy
79°F / 26°C 61°F / 16°C 54% 30.09 in
(1019 mb)
S 10.4 mph
(S 17 kph)
- 10SM
14:15
Partly Cloudy
81°F / 27°C 61°F / 16°C 51% 30.12 in
(1020 mb)
SE 9.2 mph
(SE 15 kph)
- 10SM
13:55
Partly Cloudy
81°F / 27°C 61°F / 16°C 51% 30.12 in
(1020 mb)
SSE 12.7 mph
(SSE 20 kph)
- 10SM
13:35
Partly Cloudy
79°F / 26°C 61°F / 16°C 54% 30.12 in
(1020 mb)
SSE 9.2 mph
(SSE 15 kph)
- 10SM
13:15
Partly Cloudy
79°F / 26°C 63°F / 17°C 58% 30.12 in
(1020 mb)
SSE 9.2 mph
(SSE 15 kph)
- 10SM
12:55
Partly Cloudy
79°F / 26°C 61°F / 16°C 54% 30.12 in
(1020 mb)
SSE 11.5 mph
(SSE 19 kph)
- 10SM
12:35
Mostly Cloudy
79°F / 26°C 61°F / 16°C 54% 30.15 in
(1021 mb)
S 11.5 mph
(S 19 kph)
- 10SM
12:15
Mostly Cloudy
77°F / 25°C 61°F / 16°C 57% 30.15 in
(1021 mb)
SSE 8.1 mph
(SSE 13 kph)
- 10SM
11:55
Mostly Cloudy
77°F / 25°C 61°F / 16°C 57% 30.15 in
(1021 mb)
S 9.2 mph
(S 15 kph)
- 10SM
11:35
Partly Cloudy
77°F / 25°C 63°F / 17°C 61% 30.15 in
(1021 mb)
SE 10.4 mph
(SE 17 kph)
- 10SM
11:15
Partly Cloudy
77°F / 25°C 63°F / 17°C 61% 30.15 in
(1021 mb)
SE 5.8 mph
(SE 9 kph)
- 10SM
10:55
Clear
77°F / 25°C 63°F / 17°C 61% 30.15 in
(1021 mb)
SSE 9.2 mph
(SSE 15 kph)
- 10SM
10:35
Partly Cloudy
75°F / 24°C 63°F / 17°C 65% 30.15 in
(1021 mb)
S 10.4 mph
(S 17 kph)
- 10SM
10:15
Partly Cloudy
73°F / 23°C 63°F / 17°C 69% 30.18 in
(1022 mb)
SSE 8.1 mph
(SSE 13 kph)
- 10SM
09:55
Partly Cloudy
73°F / 23°C 63°F / 17°C 69% 30.18 in
(1022 mb)
S 8.1 mph
(S 13 kph)
- 10SM
09:35
Clear
72°F / 22°C 61°F / 16°C 69% 30.18 in
(1022 mb)
S 6.9 mph
(S 11 kph)
- 10SM
09:15
Partly Cloudy
68°F / 20°C 61°F / 16°C 78% 30.18 in
(1022 mb)
SSE 8.1 mph
(SSE 13 kph)
- 10SM
08:55
Clear
66°F / 19°C 61°F / 16°C 83% 30.18 in
(1022 mb)
SSE 8.1 mph
(SSE 13 kph)
- 10SM
08:35
Clear
64°F / 18°C 59°F / 15°C 83% 30.18 in
(1022 mb)
SSE 5.8 mph
(SSE 9 kph)
- 10SM
08:15
Clear
63°F / 17°C 57°F / 14°C 83% 30.18 in
(1022 mb)
Calm - 10SM
07:55
Partly Cloudy
63°F / 17°C 59°F / 15°C 88% 30.18 in
(1022 mb)
Calm - 10SM
07:35
Mostly Cloudy
61°F / 16°C 57°F / 14°C 88% 30.18 in
(1022 mb)
SE 3.5 mph
(SE 6 kph)
- 9SM
07:15
Mostly Cloudy
61°F / 16°C 57°F / 14°C 88% 30.18 in
(1022 mb)
Calm - 10SM
06:55
Clear
61°F / 16°C 57°F / 14°C 88% 30.18 in
(1022 mb)
E 5.8 mph
(E 9 kph)
- 10SM
06:35
Partly Cloudy
61°F / 16°C 57°F / 14°C 88% 30.18 in
(1022 mb)
SSE 3.5 mph
(SSE 6 kph)
- 10SM
06:15
Partly Cloudy
61°F / 16°C 57°F / 14°C 88% 30.18 in
(1022 mb)
SSE 3.5 mph
(SSE 6 kph)
- 10SM
05:55
Clear
61°F / 16°C 55°F / 13°C 83% 30.18 in
(1022 mb)
ESE 4.6 mph
(ESE 7 kph)
- 10SM
05:35
Partly Cloudy
63°F / 17°C 57°F / 14°C 83% 30.18 in
(1022 mb)
SE 3.5 mph
(SE 6 kph)
- 10SM
05:15
Mostly Cloudy
63°F / 17°C 57°F / 14°C 83% 30.15 in
(1021 mb)
SSE 3.5 mph
(SSE 6 kph)
- 10SM
04:55
Overcast
63°F / 17°C 59°F / 15°C 88% 30.15 in
(1021 mb)
SSE 6.9 mph
(SSE 11 kph)
0.10 in
(2.54 mm)
10SM
04:35
Overcast
64°F / 18°C 59°F / 15°C 83% 30.15 in
(1021 mb)
SSE 6.9 mph
(SSE 11 kph)
0.10 in
(2.54 mm)
10SM
04:15
Overcast
64°F / 18°C 57°F / 14°C 78% 30.15 in
(1021 mb)
SE 21.9 mph
(SE 35 kph)
0.03 in
(0.76 mm)
6SM
03:55
Overcast
64°F / 18°C 57°F / 14°C 78% 30.15 in
(1021 mb)
S 6.9 mph
(S 11 kph)
- 10SM
03:35
Overcast
63°F / 17°C 57°F / 14°C 83% 30.15 in
(1021 mb)
S 3.5 mph
(S 6 kph)
- 10SM
03:15
Mostly Cloudy
63°F / 17°C 55°F / 13°C 77% 30.15 in
(1021 mb)
S 3.5 mph
(S 6 kph)
- 10SM
02:55
Partly Cloudy
61°F / 16°C 55°F / 13°C 83% 30.15 in
(1021 mb)
SSE 4.6 mph
(SSE 7 kph)
- 10SM
02:35
Clear
57°F / 14°C 54°F / 12°C 88% 30.15 in
(1021 mb)
SE 4.6 mph
(SE 7 kph)
- 10SM
02:15
Clear
57°F / 14°C 54°F / 12°C 88% 30.15 in
(1021 mb)
Calm - 10SM
01:55
Clear
59°F / 15°C 55°F / 13°C 88% 30.15 in
(1021 mb)
Calm - 10SM
01:35
Partly Cloudy
61°F / 16°C 55°F / 13°C 83% 30.15 in
(1021 mb)
Calm - 9SM
01:15
Mostly Cloudy
63°F / 17°C 57°F / 14°C 83% 30.15 in
(1021 mb)
S 3.5 mph
(S 6 kph)
- 10SM
00:55
Mostly Cloudy
59°F / 15°C 55°F / 13°C 88% 30.15 in
(1021 mb)
Calm - 10SM
00:35
Mostly Cloudy
59°F / 15°C 55°F / 13°C 88% 30.15 in
(1021 mb)
Calm - 10SM
00:15
Clear
63°F / 17°C 55°F / 13°C 77% 30.15 in
(1021 mb)
Calm - 10SM
Time Weather Temperature Dewpoint Humidity Pressure Winds Precip Visibility


Weather for websites

WeatherForYou.com, LLC is not responsible for any damages or problems caused by this service. Current weather conditions are obtained from the closest station including government and personal stations which may have varying degrees of accuracy. Weather forecasts are derived from the NOAA NDFD. Like all things, this site belongs to Jesus Christ... He just trusts me to maintain it. If you have any questions or comments email webmaster@weatherforyou.com

Copyright © 2014, WeatherForYou.com LLC. All rights reserved.